Weather History for Newark Heath, OH

Change the Weather History Date:

Saturday, March 30, 2013

  Actual Average Record
Temperature  
Mean Temperature 40 °F -  
Max Temperature 55 °F 58 °F 82 °F (1986)
Min Temperature 24 °F 37 °F 13 °F (1941)
Degree Days  
Heating Degree Days 26    
Moisture  
Dew Point 26 °F    
Average Humidity 65    
Maximum Humidity 93    
Minimum Humidity 29    
Precipitation  
Precipitation 0.00 in - - ()
Sea Level Pressure  
Sea Level Pressure 30.17 in    
Wind  
Wind Speed 1 mph (South)    
Max Wind Speed 8 mph    
Max Gust Speed -    
Visibility 7 miles    
Events      
Averages and records for this station are not official NWS values.
T = Trace of Precipitation, MM = Missing Value Source: NWS Daily Summary

Daily Weather History Graph

Daily Weather History Graph

Search for Another Location

Airport:

Trip Planner

Search our weather history database for the weather conditions in past years. The results will help you decide how hot, cold, wet, or windy it might be!

Date:

Astronomy

Mar. 30, 2013 Rise Set
Actual Time 7:16 AM EDT 7:52 PM EDT
Civil Twilight 6:49 AM EDT 8:19 PM EDT
Nautical Twilight 6:17 AM EDT 8:51 PM EDT
Astronomical Twilight 5:44 AM EDT 9:25 PM EDT
Moon 11:57 PM EDT (3/30) 9:10 AM EDT (3/30)
Length of Visible Light 13h 30m
Length of Day
12h 35m
Waning Gibbous, 86% of the Moon is Illuminated
Mar 30
Waning Gibbous
Apr 3
Last Quarter
Apr 10
New
Apr 18
First Quarter
Apr 25
Full

Hourly Weather History & Observations

Time (EDT) Temp. Dew Point Humidity Pressure Visibility Wind Dir Wind Speed Gust Speed Precip Events Conditions
12:54 AM 30.0 °F 26.1 °F 85% 30.24 in 8.0 mi Calm Calm - N/A   Clear
1:54 AM 30.0 °F 26.1 °F 85% 30.24 in 7.0 mi Calm Calm - N/A   Clear
2:54 AM 28.9 °F 26.1 °F 89% 30.23 in 7.0 mi Calm Calm - N/A   Clear
3:54 AM 28.0 °F 25.0 °F 88% 30.23 in 5.0 mi Calm Calm - N/A   Clear
4:54 AM 28.0 °F 24.1 °F 85% 30.23 in 5.0 mi Calm Calm - N/A   Clear
5:54 AM 26.1 °F 23.0 °F 88% 30.23 in 4.0 mi Calm Calm - N/A   Clear
6:54 AM 26.1 °F 23.0 °F 88% 30.23 in 4.0 mi Calm Calm - N/A   Clear
7:17 AM 24.8 °F 21.2 °F 86% 30.22 in 2.0 mi Calm Calm - N/A   Clear
7:24 AM 24.8 °F 21.2 °F 86% 30.22 in 1.8 mi Calm Calm - N/A   Clear
7:39 AM 24.8 °F 23.0 °F 93% 30.23 in 2.5 mi Calm Calm - N/A   Clear
7:54 AM 26.1 °F 24.1 °F 92% 30.26 in 2.5 mi Calm Calm - N/A   Clear
8:33 AM 28.4 °F 26.6 °F 93% 30.25 in 3.0 mi Calm Calm - N/A   Clear
8:54 AM 32.0 °F 28.9 °F 88% 30.27 in 3.0 mi Calm Calm - N/A   Clear
9:54 AM 39.0 °F 30.9 °F 73% 30.25 in 5.0 mi Calm Calm - N/A   Haze
10:54 AM 46.9 °F 30.9 °F 54% 30.22 in 10.0 mi SSE 5.8 mph - N/A   Clear
11:54 AM 48.9 °F 25.0 °F 39% 30.22 in 10.0 mi South 5.8 mph - N/A   Clear
12:54 PM 51.1 °F 24.1 °F 35% 30.20 in 10.0 mi SSW 6.9 mph - N/A   Clear
1:54 PM 54.0 °F 26.1 °F 34% 30.16 in 10.0 mi SE 8.1 mph - N/A   Clear
2:54 PM 55.0 °F 26.1 °F 33% 30.14 in 10.0 mi West 4.6 mph - N/A   Clear
3:54 PM 55.0 °F 24.1 °F 30% 30.11 in 10.0 mi Variable 5.8 mph - N/A   Clear
4:54 PM 55.9 °F 24.1 °F 29% 30.09 in 10.0 mi South 6.9 mph - N/A   Clear
5:54 PM 55.0 °F 24.1 °F 30% 30.07 in 10.0 mi Calm Calm - N/A   Clear
6:54 PM 55.0 °F 25.0 °F 31% 30.06 in 10.0 mi Calm Calm - N/A   Clear
7:54 PM 53.1 °F 23.0 °F 31% 30.05 in 10.0 mi Calm Calm - N/A   Clear
8:54 PM 48.9 °F 26.1 °F 41% 30.04 in 10.0 mi Calm Calm - N/A   Clear
9:54 PM 43.0 °F 32.0 °F 65% 30.02 in 10.0 mi Calm Calm - N/A   Clear
10:54 PM 39.9 °F 30.9 °F 70% 29.99 in 10.0 mi Calm Calm - N/A   Clear
11:54 PM 39.0 °F 32.0 °F 76% 29.98 in 10.0 mi Calm Calm - N/A   Clear